This is the latest recevied weather packets stored in our database for station/object K4HOG. If no packets are shown the sender has not sent any weather packets the latest 10 day(s).
| Time | Temp. | Humidity | Pressure | Rain* | Wind** | Luminosity | Snow |
|---|---|---|---|---|---|---|---|
| 1777588386 | 27.78° C | 66% | 1009.6 hPa | 0 mm | - | 83 W/m² | - |
| 1777588082 | 27.78° C | 65% | 1009.2 hPa | 0 mm | - | 75 W/m² | - |
| 1777587778 | 28.33° C | 64% | 1009.3 hPa | 0 mm | - | 155 W/m² | - |
| 1777587477 | 28.33° C | 64% | 1009.5 hPa | 0 mm | - | 188 W/m² | - |
| 1777587174 | 28.33° C | 64% | 1009.5 hPa | 0 mm | - | 164 W/m² | - |
| 1777586869 | 28.89° C | 63% | 1009.7 hPa | 0 mm | - | 173 W/m² | - |
| 1777586565 | 28.89° C | 64% | 1009.5 hPa | 0 mm | - | 289 W/m² | - |
| 1777586261 | 28.33° C | 64% | 1009.8 hPa | 0 mm | - | 312 W/m² | - |
| 1777585958 | 28.33° C | 64% | 1009.9 hPa | 0 mm | - | 206 W/m² | - |
| 1777585654 | 28.89° C | 63% | 1009.8 hPa | 0 mm | - | 243 W/m² | - |
| 1777585349 | 28.33° C | 64% | 1009.8 hPa | 0 mm | - | 290 W/m² | - |
| 1777585044 | 28.33° C | 64% | 1009.8 hPa | 0 mm | - | 221 W/m² | - |
| 1777584740 | 28.89° C | 63% | 1009.7 hPa | 0 mm | - | 245 W/m² | - |
| 1777584439 | 28.89° C | 62% | 1009.6 hPa | 0 mm | - | 322 W/m² | - |
| 1777584135 | 28.33° C | 62% | 1009.7 hPa | 0 mm | - | 231 W/m² | - |
| 1777583834 | 28.33° C | 64% | 1009.8 hPa | 0 mm | - | 193 W/m² | - |
| 1777583530 | 28.33° C | 64% | 1009.8 hPa | 0 mm | - | 147 W/m² | - |
| 1777583229 | 28.33° C | 63% | 1009.7 hPa | 0 mm | - | 163 W/m² | - |
| 1777582924 | 28.89° C | 62% | 1009.8 hPa | 0 mm | - | 160 W/m² | - |
| 1777582622 | 28.89° C | 61% | 1009.7 hPa | 0 mm | - | 183 W/m² | - |
| 1777582317 | 29.44° C | 60% | 1009.8 hPa | 0 mm | - | 218 W/m² | - |
| 1777582015 | 29.44° C | 60% | 1009.6 hPa | 0 mm | - | 278 W/m² | - |
| 1777581710 | 29.44° C | 60% | 1009.8 hPa | 0 mm | - | 327 W/m² | - |
| 1777581410 | 30° C | 59% | 1009.8 hPa | 0 mm | - | 255 W/m² | - |
| 1777581109 | 30.56° C | 55% | 1009.8 hPa | 0 mm | - | 265 W/m² | - |
* Rain latest hour (hover to see other rain measurements)
** Current wind speed in m/s (hover to see current wind gust speed)